<?xml version="1.0" encoding="UTF-8" standalone="no" ?>
<gpx xmlns="http://www.topografix.com/GPX/1/1" xmlns:xsi="http://www.w3.org/2001/XMLSchema-instance" xsi:schemaLocation="http://www.topografix.com/GPX/1/1 http://www.topografix.com/GPX/1/1/gpx.xsd" version="1.1" creator="VisuGPX - https://www.visugpx.com">
  <metadata>
    <name>Col de Tamié depuis Seythenex</name>
    <desc><![CDATA[A tester. Jamais parcouru. Vieille trace.]]></desc>
  </metadata>
  <trk>
    <name><![CDATA[TamierDeSeythenex]]></name>
    <trkseg>
      <trkpt lat="45.74539" lon="6.28436">
        <ele>520.1</ele>
        <time>1970-01-01T00:00:00Z</time>
      </trkpt>
      <trkpt lat="45.74438" lon="6.28569">
        <ele>519.8</ele>
        <time>1970-01-01T00:00:00Z</time>
      </trkpt>
      <trkpt lat="45.74324" lon="6.28607">
        <ele>538.4</ele>
        <time>1970-01-01T00:00:00Z</time>
      </trkpt>
      <trkpt lat="45.7422" lon="6.28706">
        <ele>544.6</ele>
        <time>1970-01-01T00:00:00Z</time>
      </trkpt>
      <trkpt lat="45.74136" lon="6.2887">
        <ele>555.6</ele>
        <time>1970-01-01T00:00:00Z</time>
      </trkpt>
      <trkpt lat="45.74112" lon="6.28922">
        <ele>557.6</ele>
        <time>1970-01-01T00:00:00Z</time>
      </trkpt>
      <trkpt lat="45.74031" lon="6.28905">
        <ele>574.7</ele>
        <time>1970-01-01T00:00:00Z</time>
      </trkpt>
      <trkpt lat="45.73912" lon="6.28881">
        <ele>602.4</ele>
        <time>1970-01-01T00:00:00Z</time>
      </trkpt>
      <trkpt lat="45.73836" lon="6.28939">
        <ele>619</ele>
        <time>1970-01-01T00:00:00Z</time>
      </trkpt>
      <trkpt lat="45.73803" lon="6.29013">
        <ele>627</ele>
        <time>1970-01-01T00:00:00Z</time>
      </trkpt>
      <trkpt lat="45.73771" lon="6.29073">
        <ele>632.6</ele>
        <time>1970-01-01T00:00:00Z</time>
      </trkpt>
      <trkpt lat="45.73729" lon="6.29125">
        <ele>638</ele>
        <time>1970-01-01T00:00:00Z</time>
      </trkpt>
      <trkpt lat="45.73668" lon="6.29146">
        <ele>654</ele>
        <time>1970-01-01T00:00:00Z</time>
      </trkpt>
      <trkpt lat="45.73608" lon="6.29195">
        <ele>663.8</ele>
        <time>1970-01-01T00:00:00Z</time>
      </trkpt>
      <trkpt lat="45.73542" lon="6.29243">
        <ele>669.2</ele>
        <time>1970-01-01T00:00:00Z</time>
      </trkpt>
      <trkpt lat="45.73496" lon="6.29342">
        <ele>672.2</ele>
        <time>1970-01-01T00:00:00Z</time>
      </trkpt>
      <trkpt lat="45.73551" lon="6.29403">
        <ele>666.6</ele>
        <time>1970-01-01T00:00:00Z</time>
      </trkpt>
      <trkpt lat="45.73609" lon="6.29447">
        <ele>659</ele>
        <time>1970-01-01T00:00:00Z</time>
      </trkpt>
      <trkpt lat="45.73685" lon="6.29405">
        <ele>653.2</ele>
        <time>1970-01-01T00:00:00Z</time>
      </trkpt>
      <trkpt lat="45.73747" lon="6.29397">
        <ele>648.9</ele>
        <time>1970-01-01T00:00:00Z</time>
      </trkpt>
      <trkpt lat="45.7379" lon="6.29389">
        <ele>642</ele>
        <time>1970-01-01T00:00:00Z</time>
      </trkpt>
      <trkpt lat="45.73827" lon="6.29391">
        <ele>633.4</ele>
        <time>1970-01-01T00:00:00Z</time>
      </trkpt>
      <trkpt lat="45.73833" lon="6.29477">
        <ele>623.3</ele>
        <time>1970-01-01T00:00:00Z</time>
      </trkpt>
      <trkpt lat="45.73827" lon="6.29558">
        <ele>607.1</ele>
        <time>1970-01-01T00:00:00Z</time>
      </trkpt>
      <trkpt lat="45.73758" lon="6.29606">
        <ele>603.8</ele>
        <time>1970-01-01T00:00:00Z</time>
      </trkpt>
      <trkpt lat="45.73698" lon="6.29657">
        <ele>601</ele>
        <time>1970-01-01T00:00:00Z</time>
      </trkpt>
      <trkpt lat="45.73677" lon="6.29748">
        <ele>586</ele>
        <time>1970-01-01T00:00:00Z</time>
      </trkpt>
      <trkpt lat="45.73666" lon="6.29793">
        <ele>579</ele>
        <time>1970-01-01T00:00:00Z</time>
      </trkpt>
      <trkpt lat="45.73703" lon="6.29842">
        <ele>566.7</ele>
        <time>1970-01-01T00:00:00Z</time>
      </trkpt>
      <trkpt lat="45.73711" lon="6.29858">
        <ele>563.2</ele>
        <time>1970-01-01T00:00:00Z</time>
      </trkpt>
      <trkpt lat="45.73631" lon="6.30002">
        <ele>557</ele>
        <time>1970-01-01T00:00:00Z</time>
      </trkpt>
      <trkpt lat="45.73635" lon="6.30023">
        <ele>557.2</ele>
        <time>1970-01-01T00:00:00Z</time>
      </trkpt>
      <trkpt lat="45.73603" lon="6.30063">
        <ele>558.5</ele>
        <time>1970-01-01T00:00:00Z</time>
      </trkpt>
      <trkpt lat="45.73548" lon="6.30073">
        <ele>559</ele>
        <time>1970-01-01T00:00:00Z</time>
      </trkpt>
      <trkpt lat="45.73518" lon="6.30125">
        <ele>559.1</ele>
        <time>1970-01-01T00:00:00Z</time>
      </trkpt>
      <trkpt lat="45.73493" lon="6.30135">
        <ele>559</ele>
        <time>1970-01-01T00:00:00Z</time>
      </trkpt>
      <trkpt lat="45.73473" lon="6.30114">
        <ele>560.7</ele>
        <time>1970-01-01T00:00:00Z</time>
      </trkpt>
      <trkpt lat="45.73456" lon="6.30132">
        <ele>561.1</ele>
        <time>1970-01-01T00:00:00Z</time>
      </trkpt>
      <trkpt lat="45.73431" lon="6.30101">
        <ele>567.1</ele>
        <time>1970-01-01T00:00:00Z</time>
      </trkpt>
      <trkpt lat="45.73358" lon="6.30104">
        <ele>579.8</ele>
        <time>1970-01-01T00:00:00Z</time>
      </trkpt>
      <trkpt lat="45.73281" lon="6.30157">
        <ele>593.2</ele>
        <time>1970-01-01T00:00:00Z</time>
      </trkpt>
      <trkpt lat="45.73205" lon="6.3019">
        <ele>602</ele>
        <time>1970-01-01T00:00:00Z</time>
      </trkpt>
      <trkpt lat="45.73164" lon="6.30209">
        <ele>602.7</ele>
        <time>1970-01-01T00:00:00Z</time>
      </trkpt>
      <trkpt lat="45.73136" lon="6.30266">
        <ele>608</ele>
        <time>1970-01-01T00:00:00Z</time>
      </trkpt>
      <trkpt lat="45.73114" lon="6.30338">
        <ele>614.8</ele>
        <time>1970-01-01T00:00:00Z</time>
      </trkpt>
      <trkpt lat="45.73067" lon="6.30379">
        <ele>615.1</ele>
        <time>1970-01-01T00:00:00Z</time>
      </trkpt>
      <trkpt lat="45.7304" lon="6.30448">
        <ele>622.2</ele>
        <time>1970-01-01T00:00:00Z</time>
      </trkpt>
      <trkpt lat="45.73038" lon="6.30489">
        <ele>625.7</ele>
        <time>1970-01-01T00:00:00Z</time>
      </trkpt>
      <trkpt lat="45.73003" lon="6.3052">
        <ele>629.4</ele>
        <time>1970-01-01T00:00:00Z</time>
      </trkpt>
      <trkpt lat="45.72972" lon="6.3055">
        <ele>635.3</ele>
        <time>1970-01-01T00:00:00Z</time>
      </trkpt>
      <trkpt lat="45.72986" lon="6.30598">
        <ele>640.4</ele>
        <time>1970-01-01T00:00:00Z</time>
      </trkpt>
      <trkpt lat="45.72869" lon="6.30626">
        <ele>649.8</ele>
        <time>1970-01-01T00:00:00Z</time>
      </trkpt>
      <trkpt lat="45.72831" lon="6.3067">
        <ele>656.4</ele>
        <time>1970-01-01T00:00:00Z</time>
      </trkpt>
      <trkpt lat="45.72799" lon="6.30724">
        <ele>664.2</ele>
        <time>1970-01-01T00:00:00Z</time>
      </trkpt>
      <trkpt lat="45.72768" lon="6.3076">
        <ele>668.4</ele>
        <time>1970-01-01T00:00:00Z</time>
      </trkpt>
      <trkpt lat="45.72704" lon="6.30766">
        <ele>678.5</ele>
        <time>1970-01-01T00:00:00Z</time>
      </trkpt>
      <trkpt lat="45.72662" lon="6.3075">
        <ele>687.2</ele>
        <time>1970-01-01T00:00:00Z</time>
      </trkpt>
      <trkpt lat="45.72623" lon="6.30719">
        <ele>691.9</ele>
        <time>1970-01-01T00:00:00Z</time>
      </trkpt>
      <trkpt lat="45.72618" lon="6.30747">
        <ele>699</ele>
        <time>1970-01-01T00:00:00Z</time>
      </trkpt>
      <trkpt lat="45.72627" lon="6.30771">
        <ele>700</ele>
        <time>1970-01-01T00:00:00Z</time>
      </trkpt>
      <trkpt lat="45.72607" lon="6.30794">
        <ele>707.2</ele>
        <time>1970-01-01T00:00:00Z</time>
      </trkpt>
      <trkpt lat="45.72573" lon="6.30786">
        <ele>711.4</ele>
        <time>1970-01-01T00:00:00Z</time>
      </trkpt>
      <trkpt lat="45.72539" lon="6.30776">
        <ele>713.5</ele>
        <time>1970-01-01T00:00:00Z</time>
      </trkpt>
      <trkpt lat="45.72524" lon="6.30762">
        <ele>712.5</ele>
        <time>1970-01-01T00:00:00Z</time>
      </trkpt>
      <trkpt lat="45.72496" lon="6.30777">
        <ele>716.2</ele>
        <time>1970-01-01T00:00:00Z</time>
      </trkpt>
      <trkpt lat="45.72462" lon="6.30702">
        <ele>708.4</ele>
        <time>1970-01-01T00:00:00Z</time>
      </trkpt>
      <trkpt lat="45.72442" lon="6.30657">
        <ele>710.2</ele>
        <time>1970-01-01T00:00:00Z</time>
      </trkpt>
      <trkpt lat="45.72412" lon="6.30593">
        <ele>713.6</ele>
        <time>1970-01-01T00:00:00Z</time>
      </trkpt>
      <trkpt lat="45.72395" lon="6.30528">
        <ele>713.3</ele>
        <time>1970-01-01T00:00:00Z</time>
      </trkpt>
      <trkpt lat="45.72381" lon="6.30555">
        <ele>719</ele>
        <time>1970-01-01T00:00:00Z</time>
      </trkpt>
      <trkpt lat="45.72371" lon="6.30603">
        <ele>724.1</ele>
        <time>1970-01-01T00:00:00Z</time>
      </trkpt>
      <trkpt lat="45.72364" lon="6.30648">
        <ele>727.8</ele>
        <time>1970-01-01T00:00:00Z</time>
      </trkpt>
      <trkpt lat="45.72338" lon="6.30661">
        <ele>732</ele>
        <time>1970-01-01T00:00:00Z</time>
      </trkpt>
      <trkpt lat="45.72332" lon="6.30712">
        <ele>735.1</ele>
        <time>1970-01-01T00:00:00Z</time>
      </trkpt>
      <trkpt lat="45.72327" lon="6.30784">
        <ele>736.3</ele>
        <time>1970-01-01T00:00:00Z</time>
      </trkpt>
      <trkpt lat="45.7231" lon="6.3084">
        <ele>738.7</ele>
        <time>1970-01-01T00:00:00Z</time>
      </trkpt>
      <trkpt lat="45.72271" lon="6.30877">
        <ele>738.4</ele>
        <time>1970-01-01T00:00:00Z</time>
      </trkpt>
      <trkpt lat="45.72195" lon="6.30837">
        <ele>740.5</ele>
        <time>1970-01-01T00:00:00Z</time>
      </trkpt>
      <trkpt lat="45.72124" lon="6.30808">
        <ele>742.4</ele>
        <time>1970-01-01T00:00:00Z</time>
      </trkpt>
      <trkpt lat="45.72027" lon="6.30807">
        <ele>748.4</ele>
        <time>1970-01-01T00:00:00Z</time>
      </trkpt>
      <trkpt lat="45.7201" lon="6.30848">
        <ele>749.8</ele>
        <time>1970-01-01T00:00:00Z</time>
      </trkpt>
      <trkpt lat="45.72026" lon="6.30928">
        <ele>749.8</ele>
        <time>1970-01-01T00:00:00Z</time>
      </trkpt>
      <trkpt lat="45.72048" lon="6.31003">
        <ele>748</ele>
        <time>1970-01-01T00:00:00Z</time>
      </trkpt>
      <trkpt lat="45.71997" lon="6.30959">
        <ele>762.6</ele>
        <time>1970-01-01T00:00:00Z</time>
      </trkpt>
      <trkpt lat="45.71957" lon="6.30911">
        <ele>768.7</ele>
        <time>1970-01-01T00:00:00Z</time>
      </trkpt>
      <trkpt lat="45.7193" lon="6.30841">
        <ele>763.3</ele>
        <time>1970-01-01T00:00:00Z</time>
      </trkpt>
      <trkpt lat="45.71831" lon="6.30817">
        <ele>774.4</ele>
        <time>1970-01-01T00:00:00Z</time>
      </trkpt>
      <trkpt lat="45.71757" lon="6.30817">
        <ele>791.6</ele>
        <time>1970-01-01T00:00:00Z</time>
      </trkpt>
      <trkpt lat="45.71687" lon="6.30807">
        <ele>803.2</ele>
        <time>1970-01-01T00:00:00Z</time>
      </trkpt>
      <trkpt lat="45.71679" lon="6.3077">
        <ele>802.5</ele>
        <time>1970-01-01T00:00:00Z</time>
      </trkpt>
      <trkpt lat="45.71679" lon="6.30718">
        <ele>805.6</ele>
        <time>1970-01-01T00:00:00Z</time>
      </trkpt>
      <trkpt lat="45.71667" lon="6.30676">
        <ele>810.4</ele>
        <time>1970-01-01T00:00:00Z</time>
      </trkpt>
      <trkpt lat="45.71632" lon="6.30655">
        <ele>816.9</ele>
        <time>1970-01-01T00:00:00Z</time>
      </trkpt>
      <trkpt lat="45.71582" lon="6.3067">
        <ele>823.7</ele>
        <time>1970-01-01T00:00:00Z</time>
      </trkpt>
      <trkpt lat="45.71534" lon="6.30679">
        <ele>831.7</ele>
        <time>1970-01-01T00:00:00Z</time>
      </trkpt>
      <trkpt lat="45.71474" lon="6.30714">
        <ele>838</ele>
        <time>1970-01-01T00:00:00Z</time>
      </trkpt>
      <trkpt lat="45.71425" lon="6.30737">
        <ele>840.3</ele>
        <time>1970-01-01T00:00:00Z</time>
      </trkpt>
      <trkpt lat="45.71373" lon="6.30768">
        <ele>840.4</ele>
        <time>1970-01-01T00:00:00Z</time>
      </trkpt>
      <trkpt lat="45.71301" lon="6.3082">
        <ele>837.6</ele>
        <time>1970-01-01T00:00:00Z</time>
      </trkpt>
      <trkpt lat="45.71246" lon="6.30872">
        <ele>838</ele>
        <time>1970-01-01T00:00:00Z</time>
      </trkpt>
      <trkpt lat="45.71191" lon="6.30889">
        <ele>838</ele>
        <time>1970-01-01T00:00:00Z</time>
      </trkpt>
      <trkpt lat="45.71158" lon="6.3094">
        <ele>837.7</ele>
        <time>1970-01-01T00:00:00Z</time>
      </trkpt>
      <trkpt lat="45.71157" lon="6.31003">
        <ele>839</ele>
        <time>1970-01-01T00:00:00Z</time>
      </trkpt>
      <trkpt lat="45.71034" lon="6.31088">
        <ele>841.4</ele>
        <time>1970-01-01T00:00:00Z</time>
      </trkpt>
      <trkpt lat="45.70967" lon="6.31134">
        <ele>839</ele>
        <time>1970-01-01T00:00:00Z</time>
      </trkpt>
      <trkpt lat="45.70889" lon="6.31143">
        <ele>833.1</ele>
        <time>1970-01-01T00:00:00Z</time>
      </trkpt>
      <trkpt lat="45.70809" lon="6.31136">
        <ele>825.4</ele>
        <time>1970-01-01T00:00:00Z</time>
      </trkpt>
      <trkpt lat="45.70738" lon="6.31118">
        <ele>819.1</ele>
        <time>1970-01-01T00:00:00Z</time>
      </trkpt>
      <trkpt lat="45.70698" lon="6.31129">
        <ele>817.1</ele>
        <time>1970-01-01T00:00:00Z</time>
      </trkpt>
      <trkpt lat="45.70586" lon="6.3112">
        <ele>805.7</ele>
        <time>1970-01-01T00:00:00Z</time>
      </trkpt>
      <trkpt lat="45.70592" lon="6.31056">
        <ele>798.3</ele>
        <time>1970-01-01T00:00:00Z</time>
      </trkpt>
      <trkpt lat="45.70601" lon="6.30979">
        <ele>790.2</ele>
        <time>1970-01-01T00:00:00Z</time>
      </trkpt>
      <trkpt lat="45.70589" lon="6.3087">
        <ele>778.6</ele>
        <time>1970-01-01T00:00:00Z</time>
      </trkpt>
      <trkpt lat="45.70563" lon="6.30788">
        <ele>767.6</ele>
        <time>1970-01-01T00:00:00Z</time>
      </trkpt>
      <trkpt lat="45.70554" lon="6.30697">
        <ele>762.5</ele>
        <time>1970-01-01T00:00:00Z</time>
      </trkpt>
      <trkpt lat="45.7048" lon="6.30721">
        <ele>765</ele>
        <time>1970-01-01T00:00:00Z</time>
      </trkpt>
      <trkpt lat="45.70389" lon="6.30738">
        <ele>767.2</ele>
        <time>1970-01-01T00:00:00Z</time>
      </trkpt>
      <trkpt lat="45.7032" lon="6.30721">
        <ele>771.2</ele>
        <time>1970-01-01T00:00:00Z</time>
      </trkpt>
      <trkpt lat="45.70271" lon="6.30763">
        <ele>772</ele>
        <time>1970-01-01T00:00:00Z</time>
      </trkpt>
      <trkpt lat="45.70238" lon="6.30771">
        <ele>774.4</ele>
        <time>1970-01-01T00:00:00Z</time>
      </trkpt>
      <trkpt lat="45.70147" lon="6.30741">
        <ele>778.1</ele>
        <time>1970-01-01T00:00:00Z</time>
      </trkpt>
      <trkpt lat="45.70071" lon="6.30707">
        <ele>781.9</ele>
        <time>1970-01-01T00:00:00Z</time>
      </trkpt>
      <trkpt lat="45.70017" lon="6.30659">
        <ele>788.5</ele>
        <time>1970-01-01T00:00:00Z</time>
      </trkpt>
      <trkpt lat="45.69918" lon="6.30636">
        <ele>791.4</ele>
        <time>1970-01-01T00:00:00Z</time>
      </trkpt>
      <trkpt lat="45.69835" lon="6.30594">
        <ele>797.2</ele>
        <time>1970-01-01T00:00:00Z</time>
      </trkpt>
      <trkpt lat="45.69748" lon="6.30587">
        <ele>800</ele>
        <time>1970-01-01T00:00:00Z</time>
      </trkpt>
      <trkpt lat="45.69715" lon="6.30573">
        <ele>801</ele>
        <time>1970-01-01T00:00:00Z</time>
      </trkpt>
      <trkpt lat="45.6966" lon="6.30515">
        <ele>806.6</ele>
        <time>1970-01-01T00:00:00Z</time>
      </trkpt>
      <trkpt lat="45.69585" lon="6.30461">
        <ele>816.3</ele>
        <time>1970-01-01T00:00:00Z</time>
      </trkpt>
      <trkpt lat="45.69522" lon="6.30473">
        <ele>816.6</ele>
        <time>1970-01-01T00:00:00Z</time>
      </trkpt>
      <trkpt lat="45.69464" lon="6.30518">
        <ele>818.2</ele>
        <time>1970-01-01T00:00:00Z</time>
      </trkpt>
      <trkpt lat="45.69389" lon="6.30554">
        <ele>822.9</ele>
        <time>1970-01-01T00:00:00Z</time>
      </trkpt>
      <trkpt lat="45.69344" lon="6.30607">
        <ele>825.4</ele>
        <time>1970-01-01T00:00:00Z</time>
      </trkpt>
      <trkpt lat="45.693" lon="6.3064">
        <ele>828.3</ele>
        <time>1970-01-01T00:00:00Z</time>
      </trkpt>
      <trkpt lat="45.69249" lon="6.30584">
        <ele>832.6</ele>
        <time>1970-01-01T00:00:00Z</time>
      </trkpt>
      <trkpt lat="45.69212" lon="6.30524">
        <ele>836</ele>
        <time>1970-01-01T00:00:00Z</time>
      </trkpt>
      <trkpt lat="45.6917" lon="6.30443">
        <ele>845.5</ele>
        <time>1970-01-01T00:00:00Z</time>
      </trkpt>
      <trkpt lat="45.69117" lon="6.30407">
        <ele>853.2</ele>
        <time>1970-01-01T00:00:00Z</time>
      </trkpt>
      <trkpt lat="45.69042" lon="6.30386">
        <ele>865.2</ele>
        <time>1970-01-01T00:00:00Z</time>
      </trkpt>
      <trkpt lat="45.69002" lon="6.30359">
        <ele>873.6</ele>
        <time>1970-01-01T00:00:00Z</time>
      </trkpt>
      <trkpt lat="45.68996" lon="6.30295">
        <ele>881.3</ele>
        <time>1970-01-01T00:00:00Z</time>
      </trkpt>
      <trkpt lat="45.68967" lon="6.30268">
        <ele>886</ele>
        <time>1970-01-01T00:00:00Z</time>
      </trkpt>
      <trkpt lat="45.68901" lon="6.30281">
        <ele>886.9</ele>
        <time>1970-01-01T00:00:00Z</time>
      </trkpt>
      <trkpt lat="45.68837" lon="6.30308">
        <ele>891.7</ele>
        <time>1970-01-01T00:00:00Z</time>
      </trkpt>
      <trkpt lat="45.68774" lon="6.30351">
        <ele>896.7</ele>
        <time>1970-01-01T00:00:00Z</time>
      </trkpt>
      <trkpt lat="45.68713" lon="6.30378">
        <ele>898.7</ele>
        <time>1970-01-01T00:00:00Z</time>
      </trkpt>
      <trkpt lat="45.68737" lon="6.30337">
        <ele>905</ele>
        <time>1970-01-01T00:00:00Z</time>
      </trkpt>
      <trkpt lat="45.68769" lon="6.30298">
        <ele>909.1</ele>
        <time>1970-01-01T00:00:00Z</time>
      </trkpt>
      <trkpt lat="45.68724" lon="6.30295">
        <ele>924.3</ele>
        <time>1970-01-01T00:00:00Z</time>
      </trkpt>
      <trkpt lat="45.68653" lon="6.30302">
        <ele>939.2</ele>
        <time>1970-01-01T00:00:00Z</time>
      </trkpt>
      <trkpt lat="45.68568" lon="6.30313">
        <ele>937.7</ele>
        <time>1970-01-01T00:00:00Z</time>
      </trkpt>
      <trkpt lat="45.6848" lon="6.30322">
        <ele>939.4</ele>
        <time>1970-01-01T00:00:00Z</time>
      </trkpt>
      <trkpt lat="45.68432" lon="6.30304">
        <ele>940.9</ele>
        <time>1970-01-01T00:00:00Z</time>
      </trkpt>
      <trkpt lat="45.68462" lon="6.30285">
        <ele>950.8</ele>
        <time>1970-01-01T00:00:00Z</time>
      </trkpt>
      <trkpt lat="45.68518" lon="6.3028">
        <ele>954.9</ele>
        <time>1970-01-01T00:00:00Z</time>
      </trkpt>
      <trkpt lat="45.68558" lon="6.30279">
        <ele>954.5</ele>
        <time>1970-01-01T00:00:00Z</time>
      </trkpt>
      <trkpt lat="45.68607" lon="6.30283">
        <ele>948.5</ele>
        <time>1970-01-01T00:00:00Z</time>
      </trkpt>
      <trkpt lat="45.68658" lon="6.30277">
        <ele>945.5</ele>
        <time>1970-01-01T00:00:00Z</time>
      </trkpt>
      <trkpt lat="45.68695" lon="6.30244">
        <ele>947.3</ele>
        <time>1970-01-01T00:00:00Z</time>
      </trkpt>
      <trkpt lat="45.68696" lon="6.30199">
        <ele>954.2</ele>
        <time>1970-01-01T00:00:00Z</time>
      </trkpt>
      <trkpt lat="45.68611" lon="6.30255">
        <ele>960</ele>
        <time>1970-01-01T00:00:00Z</time>
      </trkpt>
      <trkpt lat="45.68554" lon="6.30231">
        <ele>976.4</ele>
        <time>1970-01-01T00:00:00Z</time>
      </trkpt>
      <trkpt lat="45.68493" lon="6.30214">
        <ele>985.3</ele>
        <time>1970-01-01T00:00:00Z</time>
      </trkpt>
      <trkpt lat="45.68422" lon="6.302">
        <ele>988.8</ele>
        <time>1970-01-01T00:00:00Z</time>
      </trkpt>
      <trkpt lat="45.68456" lon="6.30172">
        <ele>1005.8</ele>
        <time>1970-01-01T00:00:00Z</time>
      </trkpt>
      <trkpt lat="45.68505" lon="6.30182">
        <ele>1000.9</ele>
        <time>1970-01-01T00:00:00Z</time>
      </trkpt>
      <trkpt lat="45.6856" lon="6.30159">
        <ele>1003.1</ele>
        <time>1970-01-01T00:00:00Z</time>
      </trkpt>
      <trkpt lat="45.68603" lon="6.3013">
        <ele>1005.8</ele>
        <time>1970-01-01T00:00:00Z</time>
      </trkpt>
      <trkpt lat="45.68644" lon="6.3009">
        <ele>1005.1</ele>
        <time>1970-01-01T00:00:00Z</time>
      </trkpt>
      <trkpt lat="45.68673" lon="6.30057">
        <ele>1012.9</ele>
        <time>1970-01-01T00:00:00Z</time>
      </trkpt>
      <trkpt lat="45.68725" lon="6.30053">
        <ele>1011.6</ele>
        <time>1970-01-01T00:00:00Z</time>
      </trkpt>
      <trkpt lat="45.68772" lon="6.30008">
        <ele>1022.3</ele>
        <time>1970-01-01T00:00:00Z</time>
      </trkpt>
      <trkpt lat="45.6881" lon="6.29958">
        <ele>1027</ele>
        <time>1970-01-01T00:00:00Z</time>
      </trkpt>
      <trkpt lat="45.68834" lon="6.29908">
        <ele>1033.7</ele>
        <time>1970-01-01T00:00:00Z</time>
      </trkpt>
      <trkpt lat="45.68842" lon="6.29846">
        <ele>1038</ele>
        <time>1970-01-01T00:00:00Z</time>
      </trkpt>
      <trkpt lat="45.68821" lon="6.29753">
        <ele>1042.4</ele>
        <time>1970-01-01T00:00:00Z</time>
      </trkpt>
      <trkpt lat="45.68792" lon="6.29678">
        <ele>1052.8</ele>
        <time>1970-01-01T00:00:00Z</time>
      </trkpt>
      <trkpt lat="45.68782" lon="6.29617">
        <ele>1058.6</ele>
        <time>1970-01-01T00:00:00Z</time>
      </trkpt>
      <trkpt lat="45.68782" lon="6.29556">
        <ele>1056</ele>
        <time>1970-01-01T00:00:00Z</time>
      </trkpt>
      <trkpt lat="45.68793" lon="6.29499">
        <ele>1057</ele>
        <time>1970-01-01T00:00:00Z</time>
      </trkpt>
      <trkpt lat="45.68798" lon="6.29407">
        <ele>1069.8</ele>
        <time>1970-01-01T00:00:00Z</time>
      </trkpt>
      <trkpt lat="45.68781" lon="6.29361">
        <ele>1082.8</ele>
        <time>1970-01-01T00:00:00Z</time>
      </trkpt>
      <trkpt lat="45.68798" lon="6.29298">
        <ele>1083.8</ele>
        <time>1970-01-01T00:00:00Z</time>
      </trkpt>
      <trkpt lat="45.68799" lon="6.2925">
        <ele>1096.8</ele>
        <time>1970-01-01T00:00:00Z</time>
      </trkpt>
      <trkpt lat="45.68775" lon="6.29179">
        <ele>1110.2</ele>
        <time>1970-01-01T00:00:00Z</time>
      </trkpt>
      <trkpt lat="45.68761" lon="6.29111">
        <ele>1123.4</ele>
        <time>1970-01-01T00:00:00Z</time>
      </trkpt>
      <trkpt lat="45.68764" lon="6.29047">
        <ele>1131.3</ele>
        <time>1970-01-01T00:00:00Z</time>
      </trkpt>
      <trkpt lat="45.6871" lon="6.29086">
        <ele>1144</ele>
        <time>1970-01-01T00:00:00Z</time>
      </trkpt>
      <trkpt lat="45.68664" lon="6.29112">
        <ele>1159.6</ele>
        <time>1970-01-01T00:00:00Z</time>
      </trkpt>
      <trkpt lat="45.68599" lon="6.29127">
        <ele>1179.4</ele>
        <time>1970-01-01T00:00:00Z</time>
      </trkpt>
      <trkpt lat="45.68592" lon="6.29228">
        <ele>1190</ele>
        <time>1970-01-01T00:00:00Z</time>
      </trkpt>
      <trkpt lat="45.68579" lon="6.29292">
        <ele>1208.8</ele>
        <time>1970-01-01T00:00:00Z</time>
      </trkpt>
      <trkpt lat="45.68571" lon="6.29347">
        <ele>1217</ele>
        <time>1970-01-01T00:00:00Z</time>
      </trkpt>
      <trkpt lat="45.6856" lon="6.29423">
        <ele>1227.9</ele>
        <time>1970-01-01T00:00:00Z</time>
      </trkpt>
      <trkpt lat="45.68545" lon="6.29454">
        <ele>1245.2</ele>
        <time>1970-01-01T00:00:00Z</time>
      </trkpt>
      <trkpt lat="45.68563" lon="6.29488">
        <ele>1236.7</ele>
        <time>1970-01-01T00:00:00Z</time>
      </trkpt>
      <trkpt lat="45.68573" lon="6.29521">
        <ele>1234.2</ele>
        <time>1970-01-01T00:00:00Z</time>
      </trkpt>
      <trkpt lat="45.68566" lon="6.29572">
        <ele>1244.4</ele>
        <time>1970-01-01T00:00:00Z</time>
      </trkpt>
      <trkpt lat="45.68538" lon="6.29633">
        <ele>1254.4</ele>
        <time>1970-01-01T00:00:00Z</time>
      </trkpt>
      <trkpt lat="45.68501" lon="6.29657">
        <ele>1258.8</ele>
        <time>1970-01-01T00:00:00Z</time>
      </trkpt>
      <trkpt lat="45.68405" lon="6.29637">
        <ele>1279.1</ele>
        <time>1970-01-01T00:00:00Z</time>
      </trkpt>
      <trkpt lat="45.68335" lon="6.29612">
        <ele>1291.1</ele>
        <time>1970-01-01T00:00:00Z</time>
      </trkpt>
      <trkpt lat="45.68287" lon="6.29572">
        <ele>1311.1</ele>
        <time>1970-01-01T00:00:00Z</time>
      </trkpt>
      <trkpt lat="45.6824" lon="6.29533">
        <ele>1321.4</ele>
        <time>1970-01-01T00:00:00Z</time>
      </trkpt>
      <trkpt lat="45.68187" lon="6.29502">
        <ele>1333.7</ele>
        <time>1970-01-01T00:00:00Z</time>
      </trkpt>
      <trkpt lat="45.68139" lon="6.29465">
        <ele>1347.7</ele>
        <time>1970-01-01T00:00:00Z</time>
      </trkpt>
      <trkpt lat="45.68098" lon="6.29427">
        <ele>1353.7</ele>
        <time>1970-01-01T00:00:00Z</time>
      </trkpt>
      <trkpt lat="45.68061" lon="6.29391">
        <ele>1370.6</ele>
        <time>1970-01-01T00:00:00Z</time>
      </trkpt>
      <trkpt lat="45.68106" lon="6.294">
        <ele>1372.1</ele>
        <time>1970-01-01T00:00:00Z</time>
      </trkpt>
      <trkpt lat="45.68159" lon="6.29406">
        <ele>1380.2</ele>
        <time>1970-01-01T00:00:00Z</time>
      </trkpt>
      <trkpt lat="45.68199" lon="6.29386">
        <ele>1393.6</ele>
        <time>1970-01-01T00:00:00Z</time>
      </trkpt>
      <trkpt lat="45.68248" lon="6.29375">
        <ele>1400.5</ele>
        <time>1970-01-01T00:00:00Z</time>
      </trkpt>
      <trkpt lat="45.6827" lon="6.29358">
        <ele>1406.9</ele>
        <time>1970-01-01T00:00:00Z</time>
      </trkpt>
      <trkpt lat="45.68276" lon="6.2933">
        <ele>1415.4</ele>
        <time>1970-01-01T00:00:00Z</time>
      </trkpt>
      <trkpt lat="45.68231" lon="6.29274">
        <ele>1434.7</ele>
        <time>1970-01-01T00:00:00Z</time>
      </trkpt>
      <trkpt lat="45.68187" lon="6.29258">
        <ele>1442.6</ele>
        <time>1970-01-01T00:00:00Z</time>
      </trkpt>
      <trkpt lat="45.68133" lon="6.29264">
        <ele>1446.3</ele>
        <time>1970-01-01T00:00:00Z</time>
      </trkpt>
      <trkpt lat="45.6812" lon="6.29239">
        <ele>1457</ele>
        <time>1970-01-01T00:00:00Z</time>
      </trkpt>
      <trkpt lat="45.68156" lon="6.29206">
        <ele>1463</ele>
        <time>1970-01-01T00:00:00Z</time>
      </trkpt>
      <trkpt lat="45.6819" lon="6.29167">
        <ele>1470.6</ele>
        <time>1970-01-01T00:00:00Z</time>
      </trkpt>
      <trkpt lat="45.68198" lon="6.29102">
        <ele>1482.8</ele>
        <time>1970-01-01T00:00:00Z</time>
      </trkpt>
      <trkpt lat="45.6818" lon="6.2898">
        <ele>1495.1</ele>
        <time>1970-01-01T00:00:00Z</time>
      </trkpt>
      <trkpt lat="45.68162" lon="6.28895">
        <ele>1497.1</ele>
        <time>1970-01-01T00:00:00Z</time>
      </trkpt>
      <trkpt lat="45.68143" lon="6.28795">
        <ele>1501.5</ele>
        <time>1970-01-01T00:00:00Z</time>
      </trkpt>
      <trkpt lat="45.681" lon="6.28744">
        <ele>1521.8</ele>
        <time>1970-01-01T00:00:00Z</time>
      </trkpt>
      <trkpt lat="45.68069" lon="6.28672">
        <ele>1521.1</ele>
        <time>1970-01-01T00:00:00Z</time>
      </trkpt>
      <trkpt lat="45.68079" lon="6.28633">
        <ele>1512</ele>
        <time>1970-01-01T00:00:00Z</time>
      </trkpt>
      <trkpt lat="45.68105" lon="6.2864">
        <ele>1500.9</ele>
        <time>1970-01-01T00:00:00Z</time>
      </trkpt>
      <trkpt lat="45.68139" lon="6.28581">
        <ele>1512.5</ele>
        <time>1970-01-01T00:00:00Z</time>
      </trkpt>
      <trkpt lat="45.68185" lon="6.28524">
        <ele>1523.3</ele>
        <time>1970-01-01T00:00:00Z</time>
      </trkpt>
      <trkpt lat="45.68225" lon="6.28514">
        <ele>1522.1</ele>
        <time>1970-01-01T00:00:00Z</time>
      </trkpt>
      <trkpt lat="45.68283" lon="6.28527">
        <ele>1524.7</ele>
        <time>1970-01-01T00:00:00Z</time>
      </trkpt>
      <trkpt lat="45.68322" lon="6.28554">
        <ele>1521.9</ele>
        <time>1970-01-01T00:00:00Z</time>
      </trkpt>
      <trkpt lat="45.68341" lon="6.28538">
        <ele>1526.4</ele>
        <time>1970-01-01T00:00:00Z</time>
      </trkpt>
      <trkpt lat="45.68294" lon="6.28453">
        <ele>1545.7</ele>
        <time>1970-01-01T00:00:00Z</time>
      </trkpt>
      <trkpt lat="45.68254" lon="6.28405">
        <ele>1560.1</ele>
        <time>1970-01-01T00:00:00Z</time>
      </trkpt>
      <trkpt lat="45.68216" lon="6.28378">
        <ele>1573.4</ele>
        <time>1970-01-01T00:00:00Z</time>
      </trkpt>
      <trkpt lat="45.68208" lon="6.28311">
        <ele>1585.7</ele>
        <time>1970-01-01T00:00:00Z</time>
      </trkpt>
      <trkpt lat="45.68188" lon="6.28249">
        <ele>1586.1</ele>
        <time>1970-01-01T00:00:00Z</time>
      </trkpt>
      <trkpt lat="45.68159" lon="6.2821">
        <ele>1590</ele>
        <time>1970-01-01T00:00:00Z</time>
      </trkpt>
      <trkpt lat="45.68145" lon="6.28117">
        <ele>1578.4</ele>
        <time>1970-01-01T00:00:00Z</time>
      </trkpt>
      <trkpt lat="45.68103" lon="6.28033">
        <ele>1601.6</ele>
        <time>1970-01-01T00:00:00Z</time>
      </trkpt>
      <trkpt lat="45.68067" lon="6.27958">
        <ele>1595.3</ele>
        <time>1970-01-01T00:00:00Z</time>
      </trkpt>
      <trkpt lat="45.68043" lon="6.27858">
        <ele>1586.1</ele>
        <time>1970-01-01T00:00:00Z</time>
      </trkpt>
      <trkpt lat="45.6801" lon="6.27847">
        <ele>1600.8</ele>
        <time>1970-01-01T00:00:00Z</time>
      </trkpt>
      <trkpt lat="45.67995" lon="6.27779">
        <ele>1599.3</ele>
        <time>1970-01-01T00:00:00Z</time>
      </trkpt>
      <trkpt lat="45.6796" lon="6.27744">
        <ele>1609.8</ele>
        <time>1970-01-01T00:00:00Z</time>
      </trkpt>
      <trkpt lat="45.67937" lon="6.27705">
        <ele>1616.6</ele>
        <time>1970-01-01T00:00:00Z</time>
      </trkpt>
      <trkpt lat="45.6794" lon="6.27666">
        <ele>1609.4</ele>
        <time>1970-01-01T00:00:00Z</time>
      </trkpt>
      <trkpt lat="45.67914" lon="6.27634">
        <ele>1620.7</ele>
        <time>1970-01-01T00:00:00Z</time>
      </trkpt>
      <trkpt lat="45.67917" lon="6.27595">
        <ele>1619.1</ele>
        <time>1970-01-01T00:00:00Z</time>
      </trkpt>
      <trkpt lat="45.67905" lon="6.27539">
        <ele>1623.5</ele>
        <time>1970-01-01T00:00:00Z</time>
      </trkpt>
      <trkpt lat="45.67926" lon="6.27502">
        <ele>1626.9</ele>
        <time>1970-01-01T00:00:00Z</time>
      </trkpt>
      <trkpt lat="45.67925" lon="6.27458">
        <ele>1635.9</ele>
        <time>1970-01-01T00:00:00Z</time>
      </trkpt>
      <trkpt lat="45.67937" lon="6.27446">
        <ele>1638</ele>
        <time>1970-01-01T00:00:00Z</time>
      </trkpt>
      <trkpt lat="45.67952" lon="6.27412">
        <ele>1642.4</ele>
        <time>1970-01-01T00:00:00Z</time>
      </trkpt>
      <trkpt lat="45.67969" lon="6.2743">
        <ele>1636</ele>
        <time>1970-01-01T00:00:00Z</time>
      </trkpt>
      <trkpt lat="45.67991" lon="6.27406">
        <ele>1630.9</ele>
        <time>1970-01-01T00:00:00Z</time>
      </trkpt>
      <trkpt lat="45.67998" lon="6.27365">
        <ele>1630.4</ele>
        <time>1970-01-01T00:00:00Z</time>
      </trkpt>
      <trkpt lat="45.68003" lon="6.2733">
        <ele>1631.8</ele>
        <time>1970-01-01T00:00:00Z</time>
      </trkpt>
      <trkpt lat="45.67996" lon="6.27289">
        <ele>1641.1</ele>
        <time>1970-01-01T00:00:00Z</time>
      </trkpt>
      <trkpt lat="45.68013" lon="6.27288">
        <ele>1635.9</ele>
        <time>1970-01-01T00:00:00Z</time>
      </trkpt>
      <trkpt lat="45.68022" lon="6.27271">
        <ele>1636.6</ele>
        <time>1970-01-01T00:00:00Z</time>
      </trkpt>
      <trkpt lat="45.68047" lon="6.27305">
        <ele>1626.5</ele>
        <time>1970-01-01T00:00:00Z</time>
      </trkpt>
      <trkpt lat="45.68079" lon="6.27353">
        <ele>1611</ele>
        <time>1970-01-01T00:00:00Z</time>
      </trkpt>
      <trkpt lat="45.68111" lon="6.27383">
        <ele>1604.4</ele>
        <time>1970-01-01T00:00:00Z</time>
      </trkpt>
      <trkpt lat="45.6814" lon="6.27382">
        <ele>1609.7</ele>
        <time>1970-01-01T00:00:00Z</time>
      </trkpt>
      <trkpt lat="45.68184" lon="6.27376">
        <ele>1613.1</ele>
        <time>1970-01-01T00:00:00Z</time>
      </trkpt>
      <trkpt lat="45.68209" lon="6.27361">
        <ele>1620.6</ele>
        <time>1970-01-01T00:00:00Z</time>
      </trkpt>
      <trkpt lat="45.68243" lon="6.27348">
        <ele>1618.6</ele>
        <time>1970-01-01T00:00:00Z</time>
      </trkpt>
      <trkpt lat="45.68251" lon="6.27295">
        <ele>1623.4</ele>
        <time>1970-01-01T00:00:00Z</time>
      </trkpt>
      <trkpt lat="45.68235" lon="6.27233">
        <ele>1630.4</ele>
        <time>1970-01-01T00:00:00Z</time>
      </trkpt>
      <trkpt lat="45.68237" lon="6.27199">
        <ele>1634.5</ele>
        <time>1970-01-01T00:00:00Z</time>
      </trkpt>
      <trkpt lat="45.68257" lon="6.27182">
        <ele>1633.7</ele>
        <time>1970-01-01T00:00:00Z</time>
      </trkpt>
      <trkpt lat="45.68264" lon="6.27148">
        <ele>1640.3</ele>
        <time>1970-01-01T00:00:00Z</time>
      </trkpt>
      <trkpt lat="45.6829" lon="6.27113">
        <ele>1636.5</ele>
        <time>1970-01-01T00:00:00Z</time>
      </trkpt>
      <trkpt lat="45.683" lon="6.27089">
        <ele>1640</ele>
        <time>1970-01-01T00:00:00Z</time>
      </trkpt>
      <trkpt lat="45.6832" lon="6.27056">
        <ele>1649.1</ele>
        <time>1970-01-01T00:00:00Z</time>
      </trkpt>
      <trkpt lat="45.68347" lon="6.27068">
        <ele>1639.6</ele>
        <time>1970-01-01T00:00:00Z</time>
      </trkpt>
      <trkpt lat="45.68381" lon="6.27082">
        <ele>1647.2</ele>
        <time>1970-01-01T00:00:00Z</time>
      </trkpt>
      <trkpt lat="45.68405" lon="6.27083">
        <ele>1650.9</ele>
        <time>1970-01-01T00:00:00Z</time>
      </trkpt>
      <trkpt lat="45.68427" lon="6.27092">
        <ele>1648.8</ele>
        <time>1970-01-01T00:00:00Z</time>
      </trkpt>
      <trkpt lat="45.68444" lon="6.27107">
        <ele>1646.4</ele>
        <time>1970-01-01T00:00:00Z</time>
      </trkpt>
      <trkpt lat="45.68462" lon="6.27106">
        <ele>1647.5</ele>
        <time>1970-01-01T00:00:00Z</time>
      </trkpt>
      <trkpt lat="45.68489" lon="6.2711">
        <ele>1647</ele>
        <time>1970-01-01T00:00:00Z</time>
      </trkpt>
      <trkpt lat="45.68521" lon="6.27101">
        <ele>1644.9</ele>
        <time>1970-01-01T00:00:00Z</time>
      </trkpt>
      <trkpt lat="45.68548" lon="6.27086">
        <ele>1646.1</ele>
        <time>1970-01-01T00:00:00Z</time>
      </trkpt>
      <trkpt lat="45.68584" lon="6.27099">
        <ele>1627.9</ele>
        <time>1970-01-01T00:00:00Z</time>
      </trkpt>
      <trkpt lat="45.68608" lon="6.27119">
        <ele>1632.2</ele>
        <time>1970-01-01T00:00:00Z</time>
      </trkpt>
      <trkpt lat="45.68615" lon="6.27169">
        <ele>1628.1</ele>
        <time>1970-01-01T00:00:00Z</time>
      </trkpt>
      <trkpt lat="45.68636" lon="6.27209">
        <ele>1631.5</ele>
        <time>1970-01-01T00:00:00Z</time>
      </trkpt>
      <trkpt lat="45.6866" lon="6.27237">
        <ele>1637.4</ele>
        <time>1970-01-01T00:00:00Z</time>
      </trkpt>
      <trkpt lat="45.6869" lon="6.27259">
        <ele>1651.2</ele>
        <time>1970-01-01T00:00:00Z</time>
      </trkpt>
      <trkpt lat="45.68711" lon="6.27288">
        <ele>1660.8</ele>
        <time>1970-01-01T00:00:00Z</time>
      </trkpt>
      <trkpt lat="45.68728" lon="6.27339">
        <ele>1659.3</ele>
        <time>1970-01-01T00:00:00Z</time>
      </trkpt>
      <trkpt lat="45.68746" lon="6.27393">
        <ele>1660.5</ele>
        <time>1970-01-01T00:00:00Z</time>
      </trkpt>
      <trkpt lat="45.68769" lon="6.27441">
        <ele>1669.7</ele>
        <time>1970-01-01T00:00:00Z</time>
      </trkpt>
      <trkpt lat="45.68788" lon="6.27484">
        <ele>1668.4</ele>
        <time>1970-01-01T00:00:00Z</time>
      </trkpt>
      <trkpt lat="45.68809" lon="6.27513">
        <ele>1673.4</ele>
        <time>1970-01-01T00:00:00Z</time>
      </trkpt>
      <trkpt lat="45.68808" lon="6.27575">
        <ele>1670.4</ele>
        <time>1970-01-01T00:00:00Z</time>
      </trkpt>
      <trkpt lat="45.68814" lon="6.27628">
        <ele>1660.6</ele>
        <time>1970-01-01T00:00:00Z</time>
      </trkpt>
      <trkpt lat="45.6884" lon="6.27657">
        <ele>1653.6</ele>
        <time>1970-01-01T00:00:00Z</time>
      </trkpt>
      <trkpt lat="45.6888" lon="6.27651">
        <ele>1655.3</ele>
        <time>1970-01-01T00:00:00Z</time>
      </trkpt>
      <trkpt lat="45.6893" lon="6.27644">
        <ele>1657.7</ele>
        <time>1970-01-01T00:00:00Z</time>
      </trkpt>
      <trkpt lat="45.68961" lon="6.27649">
        <ele>1659</ele>
        <time>1970-01-01T00:00:00Z</time>
      </trkpt>
      <trkpt lat="45.69" lon="6.27681">
        <ele>1651.4</ele>
        <time>1970-01-01T00:00:00Z</time>
      </trkpt>
      <trkpt lat="45.69043" lon="6.27701">
        <ele>1654.8</ele>
        <time>1970-01-01T00:00:00Z</time>
      </trkpt>
      <trkpt lat="45.69091" lon="6.27737">
        <ele>1656.9</ele>
        <time>1970-01-01T00:00:00Z</time>
      </trkpt>
      <trkpt lat="45.69118" lon="6.27798">
        <ele>1646.6</ele>
        <time>1970-01-01T00:00:00Z</time>
      </trkpt>
      <trkpt lat="45.69146" lon="6.27824">
        <ele>1646.3</ele>
        <time>1970-01-01T00:00:00Z</time>
      </trkpt>
      <trkpt lat="45.69188" lon="6.27835">
        <ele>1651</ele>
        <time>1970-01-01T00:00:00Z</time>
      </trkpt>
      <trkpt lat="45.69235" lon="6.27874">
        <ele>1654.4</ele>
        <time>1970-01-01T00:00:00Z</time>
      </trkpt>
      <trkpt lat="45.69271" lon="6.27922">
        <ele>1658.4</ele>
        <time>1970-01-01T00:00:00Z</time>
      </trkpt>
      <trkpt lat="45.69293" lon="6.27985">
        <ele>1658.1</ele>
        <time>1970-01-01T00:00:00Z</time>
      </trkpt>
      <trkpt lat="45.6931" lon="6.28043">
        <ele>1668.2</ele>
        <time>1970-01-01T00:00:00Z</time>
      </trkpt>
      <trkpt lat="45.69307" lon="6.28115">
        <ele>1660.6</ele>
        <time>1970-01-01T00:00:00Z</time>
      </trkpt>
      <trkpt lat="45.69311" lon="6.28168">
        <ele>1655.5</ele>
        <time>1970-01-01T00:00:00Z</time>
      </trkpt>
      <trkpt lat="45.69341" lon="6.28186">
        <ele>1675.9</ele>
        <time>1970-01-01T00:00:00Z</time>
      </trkpt>
      <trkpt lat="45.69359" lon="6.28222">
        <ele>1683.3</ele>
        <time>1970-01-01T00:00:00Z</time>
      </trkpt>
      <trkpt lat="45.69374" lon="6.2827">
        <ele>1682</ele>
        <time>1970-01-01T00:00:00Z</time>
      </trkpt>
      <trkpt lat="45.69402" lon="6.28299">
        <ele>1681.5</ele>
        <time>1970-01-01T00:00:00Z</time>
      </trkpt>
      <trkpt lat="45.69436" lon="6.28305">
        <ele>1682.1</ele>
        <time>1970-01-01T00:00:00Z</time>
      </trkpt>
      <trkpt lat="45.69465" lon="6.28271">
        <ele>1680.2</ele>
        <time>1970-01-01T00:00:00Z</time>
      </trkpt>
      <trkpt lat="45.69509" lon="6.28241">
        <ele>1678</ele>
        <time>1970-01-01T00:00:00Z</time>
      </trkpt>
      <trkpt lat="45.69543" lon="6.28192">
        <ele>1677.7</ele>
        <time>1970-01-01T00:00:00Z</time>
      </trkpt>
      <trkpt lat="45.69577" lon="6.28163">
        <ele>1666.6</ele>
        <time>1970-01-01T00:00:00Z</time>
      </trkpt>
      <trkpt lat="45.69601" lon="6.28127">
        <ele>1656.1</ele>
        <time>1970-01-01T00:00:00Z</time>
      </trkpt>
      <trkpt lat="45.69606" lon="6.2808">
        <ele>1676.7</ele>
        <time>1970-01-01T00:00:00Z</time>
      </trkpt>
      <trkpt lat="45.69637" lon="6.28026">
        <ele>1679.3</ele>
        <time>1970-01-01T00:00:00Z</time>
      </trkpt>
      <trkpt lat="45.69666" lon="6.28018">
        <ele>1678.3</ele>
        <time>1970-01-01T00:00:00Z</time>
      </trkpt>
      <trkpt lat="45.69704" lon="6.28">
        <ele>1684.9</ele>
        <time>1970-01-01T00:00:00Z</time>
      </trkpt>
      <trkpt lat="45.69665" lon="6.27967">
        <ele>1695.7</ele>
        <time>1970-01-01T00:00:00Z</time>
      </trkpt>
      <trkpt lat="45.69645" lon="6.27928">
        <ele>1703.7</ele>
        <time>1970-01-01T00:00:00Z</time>
      </trkpt>
      <trkpt lat="45.69668" lon="6.27882">
        <ele>1711.8</ele>
        <time>1970-01-01T00:00:00Z</time>
      </trkpt>
      <trkpt lat="45.69701" lon="6.27852">
        <ele>1713</ele>
        <time>1970-01-01T00:00:00Z</time>
      </trkpt>
      <trkpt lat="45.69708" lon="6.27791">
        <ele>1717.2</ele>
        <time>1970-01-01T00:00:00Z</time>
      </trkpt>
      <trkpt lat="45.69696" lon="6.27705">
        <ele>1726.3</ele>
        <time>1970-01-01T00:00:00Z</time>
      </trkpt>
      <trkpt lat="45.69679" lon="6.27653">
        <ele>1728.3</ele>
        <time>1970-01-01T00:00:00Z</time>
      </trkpt>
      <trkpt lat="45.69675" lon="6.276">
        <ele>1735.1</ele>
        <time>1970-01-01T00:00:00Z</time>
      </trkpt>
      <trkpt lat="45.69693" lon="6.27578">
        <ele>1742.5</ele>
        <time>1970-01-01T00:00:00Z</time>
      </trkpt>
      <trkpt lat="45.69715" lon="6.27604">
        <ele>1747.5</ele>
        <time>1970-01-01T00:00:00Z</time>
      </trkpt>
      <trkpt lat="45.6973" lon="6.27572">
        <ele>1756.2</ele>
        <time>1970-01-01T00:00:00Z</time>
      </trkpt>
      <trkpt lat="45.69718" lon="6.2751">
        <ele>1761.8</ele>
        <time>1970-01-01T00:00:00Z</time>
      </trkpt>
      <trkpt lat="45.69692" lon="6.27454">
        <ele>1763.8</ele>
        <time>1970-01-01T00:00:00Z</time>
      </trkpt>
      <trkpt lat="45.69683" lon="6.27414">
        <ele>1768</ele>
        <time>1970-01-01T00:00:00Z</time>
      </trkpt>
      <trkpt lat="45.69707" lon="6.27353">
        <ele>1780</ele>
        <time>1970-01-01T00:00:00Z</time>
      </trkpt>
      <trkpt lat="45.69673" lon="6.27334">
        <ele>1786</ele>
        <time>1970-01-01T00:00:00Z</time>
      </trkpt>
      <trkpt lat="45.69681" lon="6.27284">
        <ele>1794.2</ele>
        <time>1970-01-01T00:00:00Z</time>
      </trkpt>
      <trkpt lat="45.69686" lon="6.27234">
        <ele>1805.3</ele>
        <time>1970-01-01T00:00:00Z</time>
      </trkpt>
      <trkpt lat="45.69712" lon="6.27203">
        <ele>1811</ele>
        <time>1970-01-01T00:00:00Z</time>
      </trkpt>
      <trkpt lat="45.69744" lon="6.27175">
        <ele>1818</ele>
        <time>1970-01-01T00:00:00Z</time>
      </trkpt>
      <trkpt lat="45.69783" lon="6.27204">
        <ele>1818.5</ele>
        <time>1970-01-01T00:00:00Z</time>
      </trkpt>
      <trkpt lat="45.69818" lon="6.27242">
        <ele>1821.2</ele>
        <time>1970-01-01T00:00:00Z</time>
      </trkpt>
      <trkpt lat="45.69851" lon="6.27254">
        <ele>1829.7</ele>
        <time>1970-01-01T00:00:00Z</time>
      </trkpt>
      <trkpt lat="45.69842" lon="6.27197">
        <ele>1826.2</ele>
        <time>1970-01-01T00:00:00Z</time>
      </trkpt>
      <trkpt lat="45.69855" lon="6.27143">
        <ele>1820.4</ele>
        <time>1970-01-01T00:00:00Z</time>
      </trkpt>
      <trkpt lat="45.69887" lon="6.27115">
        <ele>1804.8</ele>
        <time>1970-01-01T00:00:00Z</time>
      </trkpt>
      <trkpt lat="45.69905" lon="6.27191">
        <ele>1794.1</ele>
        <time>1970-01-01T00:00:00Z</time>
      </trkpt>
      <trkpt lat="45.69933" lon="6.27275">
        <ele>1785</ele>
        <time>1970-01-01T00:00:00Z</time>
      </trkpt>
      <trkpt lat="45.69973" lon="6.27237">
        <ele>1761.4</ele>
        <time>1970-01-01T00:00:00Z</time>
      </trkpt>
      <trkpt lat="45.70017" lon="6.27159">
        <ele>1735.9</ele>
        <time>1970-01-01T00:00:00Z</time>
      </trkpt>
      <trkpt lat="45.70041" lon="6.27285">
        <ele>1721.8</ele>
        <time>1970-01-01T00:00:00Z</time>
      </trkpt>
      <trkpt lat="45.70048" lon="6.27387">
        <ele>1723</ele>
        <time>1970-01-01T00:00:00Z</time>
      </trkpt>
      <trkpt lat="45.70058" lon="6.27413">
        <ele>1727.9</ele>
        <time>1970-01-01T00:00:00Z</time>
      </trkpt>
      <trkpt lat="45.70088" lon="6.27384">
        <ele>1708.8</ele>
        <time>1970-01-01T00:00:00Z</time>
      </trkpt>
      <trkpt lat="45.70101" lon="6.27255">
        <ele>1688.6</ele>
        <time>1970-01-01T00:00:00Z</time>
      </trkpt>
      <trkpt lat="45.70131" lon="6.27114">
        <ele>1676.9</ele>
        <time>1970-01-01T00:00:00Z</time>
      </trkpt>
      <trkpt lat="45.70153" lon="6.27134">
        <ele>1666</ele>
        <time>1970-01-01T00:00:00Z</time>
      </trkpt>
      <trkpt lat="45.70182" lon="6.27203">
        <ele>1647.2</ele>
        <time>1970-01-01T00:00:00Z</time>
      </trkpt>
      <trkpt lat="45.70204" lon="6.27226">
        <ele>1636.2</ele>
        <time>1970-01-01T00:00:00Z</time>
      </trkpt>
      <trkpt lat="45.70236" lon="6.27158">
        <ele>1618.5</ele>
        <time>1970-01-01T00:00:00Z</time>
      </trkpt>
      <trkpt lat="45.70262" lon="6.27197">
        <ele>1601.1</ele>
        <time>1970-01-01T00:00:00Z</time>
      </trkpt>
      <trkpt lat="45.70294" lon="6.27265">
        <ele>1583.3</ele>
        <time>1970-01-01T00:00:00Z</time>
      </trkpt>
      <trkpt lat="45.70319" lon="6.2733">
        <ele>1578.2</ele>
        <time>1970-01-01T00:00:00Z</time>
      </trkpt>
      <trkpt lat="45.7033" lon="6.27291">
        <ele>1565.7</ele>
        <time>1970-01-01T00:00:00Z</time>
      </trkpt>
      <trkpt lat="45.70335" lon="6.27211">
        <ele>1561.6</ele>
        <time>1970-01-01T00:00:00Z</time>
      </trkpt>
      <trkpt lat="45.70367" lon="6.27282">
        <ele>1546.3</ele>
        <time>1970-01-01T00:00:00Z</time>
      </trkpt>
      <trkpt lat="45.70396" lon="6.27349">
        <ele>1543.2</ele>
        <time>1970-01-01T00:00:00Z</time>
      </trkpt>
      <trkpt lat="45.70435" lon="6.27436">
        <ele>1541.9</ele>
        <time>1970-01-01T00:00:00Z</time>
      </trkpt>
      <trkpt lat="45.70493" lon="6.27494">
        <ele>1525.6</ele>
        <time>1970-01-01T00:00:00Z</time>
      </trkpt>
      <trkpt lat="45.70537" lon="6.27532">
        <ele>1513.1</ele>
        <time>1970-01-01T00:00:00Z</time>
      </trkpt>
      <trkpt lat="45.70575" lon="6.27568">
        <ele>1500.7</ele>
        <time>1970-01-01T00:00:00Z</time>
      </trkpt>
      <trkpt lat="45.70592" lon="6.27528">
        <ele>1484.9</ele>
        <time>1970-01-01T00:00:00Z</time>
      </trkpt>
      <trkpt lat="45.70631" lon="6.27535">
        <ele>1466.9</ele>
        <time>1970-01-01T00:00:00Z</time>
      </trkpt>
      <trkpt lat="45.70666" lon="6.27587">
        <ele>1447</ele>
        <time>1970-01-01T00:00:00Z</time>
      </trkpt>
      <trkpt lat="45.70679" lon="6.27683">
        <ele>1435</ele>
        <time>1970-01-01T00:00:00Z</time>
      </trkpt>
      <trkpt lat="45.70678" lon="6.2774">
        <ele>1433.7</ele>
        <time>1970-01-01T00:00:00Z</time>
      </trkpt>
      <trkpt lat="45.70676" lon="6.27813">
        <ele>1425.4</ele>
        <time>1970-01-01T00:00:00Z</time>
      </trkpt>
      <trkpt lat="45.70679" lon="6.27885">
        <ele>1404.9</ele>
        <time>1970-01-01T00:00:00Z</time>
      </trkpt>
      <trkpt lat="45.70637" lon="6.27923">
        <ele>1407.3</ele>
        <time>1970-01-01T00:00:00Z</time>
      </trkpt>
      <trkpt lat="45.70629" lon="6.27943">
        <ele>1406.8</ele>
        <time>1970-01-01T00:00:00Z</time>
      </trkpt>
      <trkpt lat="45.70656" lon="6.27953">
        <ele>1395</ele>
        <time>1970-01-01T00:00:00Z</time>
      </trkpt>
      <trkpt lat="45.70656" lon="6.28065">
        <ele>1370.9</ele>
        <time>1970-01-01T00:00:00Z</time>
      </trkpt>
      <trkpt lat="45.70647" lon="6.28154">
        <ele>1370.5</ele>
        <time>1970-01-01T00:00:00Z</time>
      </trkpt>
      <trkpt lat="45.70661" lon="6.28187">
        <ele>1366.5</ele>
        <time>1970-01-01T00:00:00Z</time>
      </trkpt>
      <trkpt lat="45.70695" lon="6.28116">
        <ele>1351.9</ele>
        <time>1970-01-01T00:00:00Z</time>
      </trkpt>
      <trkpt lat="45.70729" lon="6.28096">
        <ele>1337.3</ele>
        <time>1970-01-01T00:00:00Z</time>
      </trkpt>
      <trkpt lat="45.7076" lon="6.28113">
        <ele>1323.7</ele>
        <time>1970-01-01T00:00:00Z</time>
      </trkpt>
      <trkpt lat="45.70805" lon="6.28077">
        <ele>1313.6</ele>
        <time>1970-01-01T00:00:00Z</time>
      </trkpt>
      <trkpt lat="45.70847" lon="6.28035">
        <ele>1307.9</ele>
        <time>1970-01-01T00:00:00Z</time>
      </trkpt>
      <trkpt lat="45.70884" lon="6.28014">
        <ele>1305</ele>
        <time>1970-01-01T00:00:00Z</time>
      </trkpt>
      <trkpt lat="45.70925" lon="6.27961">
        <ele>1294.3</ele>
        <time>1970-01-01T00:00:00Z</time>
      </trkpt>
      <trkpt lat="45.70971" lon="6.27883">
        <ele>1276.3</ele>
        <time>1970-01-01T00:00:00Z</time>
      </trkpt>
      <trkpt lat="45.71031" lon="6.27879">
        <ele>1264.8</ele>
        <time>1970-01-01T00:00:00Z</time>
      </trkpt>
      <trkpt lat="45.71081" lon="6.27883">
        <ele>1251.6</ele>
        <time>1970-01-01T00:00:00Z</time>
      </trkpt>
      <trkpt lat="45.71129" lon="6.27913">
        <ele>1244.1</ele>
        <time>1970-01-01T00:00:00Z</time>
      </trkpt>
      <trkpt lat="45.71168" lon="6.27928">
        <ele>1239</ele>
        <time>1970-01-01T00:00:00Z</time>
      </trkpt>
      <trkpt lat="45.71214" lon="6.2792">
        <ele>1232</ele>
        <time>1970-01-01T00:00:00Z</time>
      </trkpt>
      <trkpt lat="45.71255" lon="6.27842">
        <ele>1207</ele>
        <time>1970-01-01T00:00:00Z</time>
      </trkpt>
      <trkpt lat="45.71294" lon="6.27789">
        <ele>1182.9</ele>
        <time>1970-01-01T00:00:00Z</time>
      </trkpt>
      <trkpt lat="45.71321" lon="6.27748">
        <ele>1166</ele>
        <time>1970-01-01T00:00:00Z</time>
      </trkpt>
      <trkpt lat="45.71369" lon="6.27657">
        <ele>1145.4</ele>
        <time>1970-01-01T00:00:00Z</time>
      </trkpt>
      <trkpt lat="45.71372" lon="6.27518">
        <ele>1139.5</ele>
        <time>1970-01-01T00:00:00Z</time>
      </trkpt>
      <trkpt lat="45.71387" lon="6.27383">
        <ele>1140.5</ele>
        <time>1970-01-01T00:00:00Z</time>
      </trkpt>
      <trkpt lat="45.71401" lon="6.27332">
        <ele>1126.3</ele>
        <time>1970-01-01T00:00:00Z</time>
      </trkpt>
      <trkpt lat="45.71401" lon="6.27254">
        <ele>1118.3</ele>
        <time>1970-01-01T00:00:00Z</time>
      </trkpt>
      <trkpt lat="45.71391" lon="6.27154">
        <ele>1108.9</ele>
        <time>1970-01-01T00:00:00Z</time>
      </trkpt>
      <trkpt lat="45.71357" lon="6.2708">
        <ele>1115.1</ele>
        <time>1970-01-01T00:00:00Z</time>
      </trkpt>
      <trkpt lat="45.71315" lon="6.27016">
        <ele>1112.3</ele>
        <time>1970-01-01T00:00:00Z</time>
      </trkpt>
      <trkpt lat="45.71296" lon="6.26966">
        <ele>1093.6</ele>
        <time>1970-01-01T00:00:00Z</time>
      </trkpt>
      <trkpt lat="45.71352" lon="6.26983">
        <ele>1084.5</ele>
        <time>1970-01-01T00:00:00Z</time>
      </trkpt>
      <trkpt lat="45.71413" lon="6.27004">
        <ele>1067.5</ele>
        <time>1970-01-01T00:00:00Z</time>
      </trkpt>
      <trkpt lat="45.71451" lon="6.2707">
        <ele>1052</ele>
        <time>1970-01-01T00:00:00Z</time>
      </trkpt>
      <trkpt lat="45.71471" lon="6.27161">
        <ele>1051.6</ele>
        <time>1970-01-01T00:00:00Z</time>
      </trkpt>
      <trkpt lat="45.7152" lon="6.27287">
        <ele>1041.9</ele>
        <time>1970-01-01T00:00:00Z</time>
      </trkpt>
      <trkpt lat="45.71545" lon="6.27377">
        <ele>1037.2</ele>
        <time>1970-01-01T00:00:00Z</time>
      </trkpt>
      <trkpt lat="45.71579" lon="6.27458">
        <ele>1026</ele>
        <time>1970-01-01T00:00:00Z</time>
      </trkpt>
      <trkpt lat="45.71601" lon="6.27542">
        <ele>1023.2</ele>
        <time>1970-01-01T00:00:00Z</time>
      </trkpt>
      <trkpt lat="45.7162" lon="6.27592">
        <ele>1015.2</ele>
        <time>1970-01-01T00:00:00Z</time>
      </trkpt>
      <trkpt lat="45.71605" lon="6.27663">
        <ele>1014.3</ele>
        <time>1970-01-01T00:00:00Z</time>
      </trkpt>
      <trkpt lat="45.71609" lon="6.27758">
        <ele>1010.2</ele>
        <time>1970-01-01T00:00:00Z</time>
      </trkpt>
      <trkpt lat="45.71623" lon="6.27842">
        <ele>1003.1</ele>
        <time>1970-01-01T00:00:00Z</time>
      </trkpt>
      <trkpt lat="45.71633" lon="6.27957">
        <ele>1005.3</ele>
        <time>1970-01-01T00:00:00Z</time>
      </trkpt>
      <trkpt lat="45.71653" lon="6.2805">
        <ele>996.1</ele>
        <time>1970-01-01T00:00:00Z</time>
      </trkpt>
      <trkpt lat="45.71665" lon="6.28164">
        <ele>987.2</ele>
        <time>1970-01-01T00:00:00Z</time>
      </trkpt>
      <trkpt lat="45.71681" lon="6.2824">
        <ele>975.4</ele>
        <time>1970-01-01T00:00:00Z</time>
      </trkpt>
      <trkpt lat="45.71698" lon="6.28317">
        <ele>963.9</ele>
        <time>1970-01-01T00:00:00Z</time>
      </trkpt>
      <trkpt lat="45.71709" lon="6.28395">
        <ele>954.6</ele>
        <time>1970-01-01T00:00:00Z</time>
      </trkpt>
      <trkpt lat="45.71708" lon="6.28442">
        <ele>948.9</ele>
        <time>1970-01-01T00:00:00Z</time>
      </trkpt>
      <trkpt lat="45.71685" lon="6.2847">
        <ele>952.4</ele>
        <time>1970-01-01T00:00:00Z</time>
      </trkpt>
      <trkpt lat="45.71682" lon="6.28516">
        <ele>961.2</ele>
        <time>1970-01-01T00:00:00Z</time>
      </trkpt>
      <trkpt lat="45.71713" lon="6.2856">
        <ele>956.2</ele>
        <time>1970-01-01T00:00:00Z</time>
      </trkpt>
      <trkpt lat="45.71732" lon="6.28565">
        <ele>950.2</ele>
        <time>1970-01-01T00:00:00Z</time>
      </trkpt>
      <trkpt lat="45.71771" lon="6.28609">
        <ele>947.7</ele>
        <time>1970-01-01T00:00:00Z</time>
      </trkpt>
      <trkpt lat="45.71814" lon="6.28662">
        <ele>939.9</ele>
        <time>1970-01-01T00:00:00Z</time>
      </trkpt>
      <trkpt lat="45.71817" lon="6.28737">
        <ele>939.7</ele>
        <time>1970-01-01T00:00:00Z</time>
      </trkpt>
      <trkpt lat="45.71807" lon="6.288">
        <ele>932.6</ele>
        <time>1970-01-01T00:00:00Z</time>
      </trkpt>
      <trkpt lat="45.71789" lon="6.28858">
        <ele>926.4</ele>
        <time>1970-01-01T00:00:00Z</time>
      </trkpt>
      <trkpt lat="45.71793" lon="6.28887">
        <ele>919.5</ele>
        <time>1970-01-01T00:00:00Z</time>
      </trkpt>
      <trkpt lat="45.71747" lon="6.28945">
        <ele>923.5</ele>
        <time>1970-01-01T00:00:00Z</time>
      </trkpt>
      <trkpt lat="45.71757" lon="6.29031">
        <ele>913.3</ele>
        <time>1970-01-01T00:00:00Z</time>
      </trkpt>
      <trkpt lat="45.71739" lon="6.29111">
        <ele>905.8</ele>
        <time>1970-01-01T00:00:00Z</time>
      </trkpt>
      <trkpt lat="45.71705" lon="6.29163">
        <ele>905.2</ele>
        <time>1970-01-01T00:00:00Z</time>
      </trkpt>
      <trkpt lat="45.71674" lon="6.29224">
        <ele>904.1</ele>
        <time>1970-01-01T00:00:00Z</time>
      </trkpt>
      <trkpt lat="45.7166" lon="6.29307">
        <ele>898.2</ele>
        <time>1970-01-01T00:00:00Z</time>
      </trkpt>
      <trkpt lat="45.71658" lon="6.29358">
        <ele>896</ele>
        <time>1970-01-01T00:00:00Z</time>
      </trkpt>
      <trkpt lat="45.71683" lon="6.29399">
        <ele>888.1</ele>
        <time>1970-01-01T00:00:00Z</time>
      </trkpt>
      <trkpt lat="45.71659" lon="6.29482">
        <ele>884.6</ele>
        <time>1970-01-01T00:00:00Z</time>
      </trkpt>
      <trkpt lat="45.71683" lon="6.29494">
        <ele>876.8</ele>
        <time>1970-01-01T00:00:00Z</time>
      </trkpt>
      <trkpt lat="45.71734" lon="6.29427">
        <ele>874</ele>
        <time>1970-01-01T00:00:00Z</time>
      </trkpt>
      <trkpt lat="45.71752" lon="6.29355">
        <ele>876.9</ele>
        <time>1970-01-01T00:00:00Z</time>
      </trkpt>
      <trkpt lat="45.71789" lon="6.29311">
        <ele>875.9</ele>
        <time>1970-01-01T00:00:00Z</time>
      </trkpt>
      <trkpt lat="45.71829" lon="6.293">
        <ele>864.7</ele>
        <time>1970-01-01T00:00:00Z</time>
      </trkpt>
      <trkpt lat="45.71856" lon="6.2926">
        <ele>858.9</ele>
        <time>1970-01-01T00:00:00Z</time>
      </trkpt>
      <trkpt lat="45.71871" lon="6.29213">
        <ele>858.4</ele>
        <time>1970-01-01T00:00:00Z</time>
      </trkpt>
      <trkpt lat="45.71909" lon="6.29206">
        <ele>851.3</ele>
        <time>1970-01-01T00:00:00Z</time>
      </trkpt>
      <trkpt lat="45.71952" lon="6.29226">
        <ele>844.7</ele>
        <time>1970-01-01T00:00:00Z</time>
      </trkpt>
      <trkpt lat="45.71975" lon="6.29254">
        <ele>843.6</ele>
        <time>1970-01-01T00:00:00Z</time>
      </trkpt>
      <trkpt lat="45.72014" lon="6.2924">
        <ele>846</ele>
        <time>1970-01-01T00:00:00Z</time>
      </trkpt>
      <trkpt lat="45.72018" lon="6.2919">
        <ele>843.6</ele>
        <time>1970-01-01T00:00:00Z</time>
      </trkpt>
      <trkpt lat="45.72012" lon="6.29123">
        <ele>839.3</ele>
        <time>1970-01-01T00:00:00Z</time>
      </trkpt>
      <trkpt lat="45.72033" lon="6.29079">
        <ele>835.8</ele>
        <time>1970-01-01T00:00:00Z</time>
      </trkpt>
      <trkpt lat="45.72065" lon="6.29058">
        <ele>832.1</ele>
        <time>1970-01-01T00:00:00Z</time>
      </trkpt>
      <trkpt lat="45.7211" lon="6.29023">
        <ele>821.4</ele>
        <time>1970-01-01T00:00:00Z</time>
      </trkpt>
      <trkpt lat="45.72106" lon="6.2906">
        <ele>821.5</ele>
        <time>1970-01-01T00:00:00Z</time>
      </trkpt>
      <trkpt lat="45.72087" lon="6.29092">
        <ele>823.5</ele>
        <time>1970-01-01T00:00:00Z</time>
      </trkpt>
      <trkpt lat="45.72085" lon="6.29123">
        <ele>824.6</ele>
        <time>1970-01-01T00:00:00Z</time>
      </trkpt>
      <trkpt lat="45.72119" lon="6.29126">
        <ele>817.1</ele>
        <time>1970-01-01T00:00:00Z</time>
      </trkpt>
      <trkpt lat="45.7215" lon="6.29167">
        <ele>816.1</ele>
        <time>1970-01-01T00:00:00Z</time>
      </trkpt>
      <trkpt lat="45.72168" lon="6.29206">
        <ele>812.8</ele>
        <time>1970-01-01T00:00:00Z</time>
      </trkpt>
      <trkpt lat="45.72183" lon="6.29272">
        <ele>806.5</ele>
        <time>1970-01-01T00:00:00Z</time>
      </trkpt>
      <trkpt lat="45.72181" lon="6.29329">
        <ele>803</ele>
        <time>1970-01-01T00:00:00Z</time>
      </trkpt>
      <trkpt lat="45.72169" lon="6.29412">
        <ele>801.3</ele>
        <time>1970-01-01T00:00:00Z</time>
      </trkpt>
      <trkpt lat="45.72159" lon="6.29451">
        <ele>797.9</ele>
        <time>1970-01-01T00:00:00Z</time>
      </trkpt>
      <trkpt lat="45.72166" lon="6.29469">
        <ele>792.9</ele>
        <time>1970-01-01T00:00:00Z</time>
      </trkpt>
      <trkpt lat="45.72195" lon="6.29514">
        <ele>782</ele>
        <time>1970-01-01T00:00:00Z</time>
      </trkpt>
      <trkpt lat="45.72227" lon="6.29534">
        <ele>780.5</ele>
        <time>1970-01-01T00:00:00Z</time>
      </trkpt>
      <trkpt lat="45.72262" lon="6.2956">
        <ele>777.2</ele>
        <time>1970-01-01T00:00:00Z</time>
      </trkpt>
      <trkpt lat="45.72308" lon="6.29575">
        <ele>772.6</ele>
        <time>1970-01-01T00:00:00Z</time>
      </trkpt>
      <trkpt lat="45.72366" lon="6.29593">
        <ele>771.4</ele>
        <time>1970-01-01T00:00:00Z</time>
      </trkpt>
      <trkpt lat="45.72413" lon="6.29599">
        <ele>768.1</ele>
        <time>1970-01-01T00:00:00Z</time>
      </trkpt>
      <trkpt lat="45.72441" lon="6.29601">
        <ele>763.2</ele>
        <time>1970-01-01T00:00:00Z</time>
      </trkpt>
      <trkpt lat="45.7247" lon="6.29625">
        <ele>761.7</ele>
        <time>1970-01-01T00:00:00Z</time>
      </trkpt>
      <trkpt lat="45.72528" lon="6.29679">
        <ele>756.4</ele>
        <time>1970-01-01T00:00:00Z</time>
      </trkpt>
      <trkpt lat="45.72542" lon="6.29715">
        <ele>754.4</ele>
        <time>1970-01-01T00:00:00Z</time>
      </trkpt>
      <trkpt lat="45.7256" lon="6.29742">
        <ele>751.8</ele>
        <time>1970-01-01T00:00:00Z</time>
      </trkpt>
      <trkpt lat="45.72565" lon="6.29785">
        <ele>750.2</ele>
        <time>1970-01-01T00:00:00Z</time>
      </trkpt>
      <trkpt lat="45.7257" lon="6.29824">
        <ele>748</ele>
        <time>1970-01-01T00:00:00Z</time>
      </trkpt>
      <trkpt lat="45.72589" lon="6.29866">
        <ele>744.3</ele>
        <time>1970-01-01T00:00:00Z</time>
      </trkpt>
      <trkpt lat="45.72591" lon="6.29904">
        <ele>741.8</ele>
        <time>1970-01-01T00:00:00Z</time>
      </trkpt>
      <trkpt lat="45.72586" lon="6.29938">
        <ele>739.5</ele>
        <time>1970-01-01T00:00:00Z</time>
      </trkpt>
      <trkpt lat="45.7263" lon="6.29958">
        <ele>735.8</ele>
        <time>1970-01-01T00:00:00Z</time>
      </trkpt>
      <trkpt lat="45.72685" lon="6.2993">
        <ele>734.2</ele>
        <time>1970-01-01T00:00:00Z</time>
      </trkpt>
      <trkpt lat="45.72737" lon="6.29953">
        <ele>730.5</ele>
        <time>1970-01-01T00:00:00Z</time>
      </trkpt>
      <trkpt lat="45.72769" lon="6.29936">
        <ele>729.4</ele>
        <time>1970-01-01T00:00:00Z</time>
      </trkpt>
      <trkpt lat="45.72808" lon="6.2993">
        <ele>728.5</ele>
        <time>1970-01-01T00:00:00Z</time>
      </trkpt>
      <trkpt lat="45.72838" lon="6.29924">
        <ele>727.3</ele>
        <time>1970-01-01T00:00:00Z</time>
      </trkpt>
      <trkpt lat="45.72871" lon="6.29916">
        <ele>725.2</ele>
        <time>1970-01-01T00:00:00Z</time>
      </trkpt>
      <trkpt lat="45.72904" lon="6.29917">
        <ele>718</ele>
        <time>1970-01-01T00:00:00Z</time>
      </trkpt>
      <trkpt lat="45.72911" lon="6.29857">
        <ele>715.4</ele>
        <time>1970-01-01T00:00:00Z</time>
      </trkpt>
      <trkpt lat="45.72914" lon="6.29813">
        <ele>709.4</ele>
        <time>1970-01-01T00:00:00Z</time>
      </trkpt>
      <trkpt lat="45.72944" lon="6.29791">
        <ele>696</ele>
        <time>1970-01-01T00:00:00Z</time>
      </trkpt>
      <trkpt lat="45.72979" lon="6.29766">
        <ele>676.8</ele>
        <time>1970-01-01T00:00:00Z</time>
      </trkpt>
      <trkpt lat="45.73007" lon="6.29743">
        <ele>654.5</ele>
        <time>1970-01-01T00:00:00Z</time>
      </trkpt>
      <trkpt lat="45.73025" lon="6.29747">
        <ele>645.1</ele>
        <time>1970-01-01T00:00:00Z</time>
      </trkpt>
      <trkpt lat="45.7306" lon="6.29781">
        <ele>637.3</ele>
        <time>1970-01-01T00:00:00Z</time>
      </trkpt>
      <trkpt lat="45.73069" lon="6.29807">
        <ele>637.2</ele>
        <time>1970-01-01T00:00:00Z</time>
      </trkpt>
      <trkpt lat="45.73095" lon="6.29862">
        <ele>622.2</ele>
        <time>1970-01-01T00:00:00Z</time>
      </trkpt>
      <trkpt lat="45.73128" lon="6.29906">
        <ele>609.7</ele>
        <time>1970-01-01T00:00:00Z</time>
      </trkpt>
      <trkpt lat="45.73159" lon="6.29923">
        <ele>603.9</ele>
        <time>1970-01-01T00:00:00Z</time>
      </trkpt>
      <trkpt lat="45.73194" lon="6.29919">
        <ele>601.4</ele>
        <time>1970-01-01T00:00:00Z</time>
      </trkpt>
      <trkpt lat="45.73218" lon="6.29915">
        <ele>600.3</ele>
        <time>1970-01-01T00:00:00Z</time>
      </trkpt>
      <trkpt lat="45.73268" lon="6.29928">
        <ele>590.1</ele>
        <time>1970-01-01T00:00:00Z</time>
      </trkpt>
      <trkpt lat="45.7331" lon="6.2995">
        <ele>578.7</ele>
        <time>1970-01-01T00:00:00Z</time>
      </trkpt>
      <trkpt lat="45.73341" lon="6.29978">
        <ele>575.2</ele>
        <time>1970-01-01T00:00:00Z</time>
      </trkpt>
      <trkpt lat="45.73373" lon="6.30023">
        <ele>574</ele>
        <time>1970-01-01T00:00:00Z</time>
      </trkpt>
      <trkpt lat="45.73408" lon="6.30042">
        <ele>570.3</ele>
        <time>1970-01-01T00:00:00Z</time>
      </trkpt>
      <trkpt lat="45.73454" lon="6.30068">
        <ele>565.2</ele>
        <time>1970-01-01T00:00:00Z</time>
      </trkpt>
      <trkpt lat="45.73495" lon="6.30052">
        <ele>561.5</ele>
        <time>1970-01-01T00:00:00Z</time>
      </trkpt>
      <trkpt lat="45.73541" lon="6.30008">
        <ele>560</ele>
        <time>1970-01-01T00:00:00Z</time>
      </trkpt>
      <trkpt lat="45.73572" lon="6.30005">
        <ele>558.5</ele>
        <time>1970-01-01T00:00:00Z</time>
      </trkpt>
      <trkpt lat="45.73626" lon="6.30013">
        <ele>557</ele>
        <time>1970-01-01T00:00:00Z</time>
      </trkpt>
    </trkseg>
  </trk>
</gpx>